Regional Weather Roundup
Issued by NWS

Home | Current Version | Previous Version | Text Only | Print | Product List | Glossary On
Versions: 1 2 3 4 5 6 7 8 9 10 11 12 13 14 15 16 17 18 19 20 21 22 23 24 25 26 27 28 29 30 31 32 33 34 35 36 37 38 39 40 41 42 43 44 45 46 47 48 49 50
000
ASUS43 KTOP 290008
RWRKS

WEATHER ROUNDUP FOR KANSAS
NATIONAL WEATHER SERVICE GOODLAND KS
600 PM CST WED JAN 28 2015

NOTE:  "FAIR" INDICATES FEW OR NO CLOUDS BELOW 12,000 FEET WITH NO
SIGNIFICANT WEATHER AND/OR OBSTRUCTIONS TO VISIBILITY.

KSZ001>006-013>018-027>032-041>047-290100-
NORTHWEST KANSAS

CITY           SKY/WX    TMP DP  RH WIND       PRES   REMARKS
GOODLAND       CLEAR     54  34  46 NW22G31   30.03R
6HR MIN TEMP:  54; 6HR MAX TEMP:  66;

HAYS           CLEAR     66  28  24 NW16G22   29.87R
HILL CITY      CLEAR     63  33  32 NW17      29.89R
6HR MIN TEMP:  63; 6HR MAX TEMP:  72;

RUSSELL        PTCLDY    65  31  28 NW18      29.83R
6HR MIN TEMP:  64; 6HR MAX TEMP:  73;

$$

KSZ061>065-074>080-084>089-290100-
SOUTHWEST KANSAS

CITY           SKY/WX    TMP DP  RH WIND       PRES   REMARKS
DODGE CITY     PTCLDY    63  25  23 NW14      29.94R
6HR MIN TEMP:  63; 6HR MAX TEMP:  73;

ELKHART          N/A     60  29  30 NE3         N/A
GARDEN CITY    PTCLDY    62  25  24 NW18G26   29.97R
6HR MIN TEMP:  61; 6HR MAX TEMP:  71;

LIBERAL        CLOUDY    59  28  31 W9        30.01R
PRATT          MOCLDY    59  30  33 NW8       29.90R
$$

KSZ066>073-081>083-090>101-290100-
SOUTHEAST KANSAS

CITY           SKY/WX    TMP DP  RH WIND       PRES   REMARKS
CHANUTE        MOCLDY    65  41  41 S12       29.79R
6HR MIN TEMP:  64; 6HR MAX TEMP:  75;

COFFEYVILLE    MOCLDY    69  41  36 S15       29.81R
6HR MIN TEMP:  69; 6HR MAX TEMP:  73;

HUTCHINSON     MOCLDY    62  30  29 NW8       29.82R
6HR MIN TEMP:  62; 6HR MAX TEMP:  74;

MEDICINE LODGE   N/A     68  28  22 NW7       29.87R
NEWTON         PTCLDY    61  30  31 SW6       29.84S
PARSONS        MOCLDY    68  41  37 S9        29.81R
6HR MIN TEMP:  68; 6HR MAX TEMP:  74;

WICHITA INTL   MOCLDY    62  34  35 SW5       29.83R
6HR MIN TEMP:  60; 6HR MAX TEMP:  72;

WICHITA JABRA  PTCLDY    62  34  35 SW6       29.83R
6HR MIN TEMP:  62; 6HR MAX TEMP:  70;

WICHITA MCCONL PTCLDY    63  36  36 SW6       29.84R
WINFIELD       CLEAR     60  26  27 SW7       29.85R
6HR MIN TEMP:  60; 6HR MAX TEMP:  77;

$$

KSZ007>012-019>026-033>040-048>060-102>105-290100-
NORTHEAST KANSAS

CITY           SKY/WX    TMP DP  RH WIND       PRES   REMARKS
CONCORDIA      CLEAR     62  33  33 W10       29.76R
6HR MIN TEMP:  55; 6HR MAX TEMP:  71;

EMPORIA        CLEAR     61  35  37 W10       29.78R
6HR MIN TEMP:  61; 6HR MAX TEMP:  76;

LAWRENCE       MOCLDY    68  38  33 SW16G23   29.71R
6HR MIN TEMP:  66; 6HR MAX TEMP:  76;

MANHATTAN      CLEAR     58  34  40 SW6       29.74R
6HR MIN TEMP:  58; 6HR MAX TEMP:  72;

MARYSVILLE     CLEAR     59  34  38 W6        29.73R
OLATHE IND     MOCLDY    65  40  39 S15       29.73R
6HR MIN TEMP:  65; 6HR MAX TEMP:  74;

OLATHE EXE     MOCLDY    67  40  37 SW13      29.72R
6HR MIN TEMP:  65; 6HR MAX TEMP:  74;

SALINA         MOCLDY    62  33  33 W8        29.79R
6HR MIN TEMP:  62; 6HR MAX TEMP:  74;

TOPEKA BILLARD PTCLDY    67  37  33 W12       29.73R
6HR MIN TEMP:  67; 6HR MAX TEMP:  78;

TOPEKA FORBES  PTCLDY    64  37  36 W12       29.74R
6HR MIN TEMP:  64; 6HR MAX TEMP:  79;

$$


USA.gov is the U.S. government's official web portal to all federal, state and local government web resources and services.